UpdateThe Soyuz rocket body re-entered the Earths atmosphere on the 11th June, 2011 @ 19:18 GMT ± 1 minute.
Inclination: 51.65°Revolution Number: 64Predicted Location: 52°S, 261°E
UpdateThe Soyuz rocket body is predicted to re-enter the Earths atmosphere on the 11th June, 2011 @ 19:09 GMT ± 3 hours.
SOYUZ RB1 37634U 11023B 11162.57857146 .11179506 12511-4 31910-3 0 2882 37634 051.6544 188.3160 0007392 101.5842 258.9269 16.44893311 617
Period: 88.38 minutesInclination: 51.65°Apogee: 209 kmPerigee: 180 km Revolution Number: 66Predicted Location: 21.6°S, 199.3°E
UpdateThe Soyuz rocket body is predicted to re-enter the Earths atmosphere on the 11th June, 2011 @ 18:48 GMT ± 8 hours.
SOYUZ RB1 37634U 11023B 11162.21319099 .05272480 12312-4 48428-3 0 2442 37634 051.6559 190.3979 0012515 101.5771 258.7613 16.37717751 557
Expand (25kb, 857 x 564)
Period: 88.38 minutesInclination: 51.65°Apogee: 209 kmPerigee: 180 km Revolution Number: 64Predicted Location: 41°N, 143°E
UpdateThe Soyuz rocket body is predicted to re-enter the Earths atmosphere on the 11th June, 2011 @ 19:18 GMT ± 16 hours.
SOYUZ RB1 37634U 11023B 11161.66307446 .03234261 12200-4 52366-3 0 2282 37634 051.6562 193.4700 0018691 089.3449 270.9930 16.32171223 464
Period: 88.38 minutesInclination: 51.65°Apogee: 209 kmPerigee: 180 km Revolution Number: 64Predicted Location: 46.3°S, 234.2°E
UpdateThe Soyuz rocket body is predicted to re-enter the Earths atmosphere on the 11th June, 2011 @ 17:25 GMT ± 10 hours.
SOYUZ RB1 37634U 11023B 11161.23439404 .02682360 12125-4 56465-3 0 1712 37634 051.6533 195.8667 0022360 088.5032 273.3481 16.29283550 390
Period: 88.61 minutesInclination: 51.66°Apogee: 225 kmPerigee: 187 km Revolution Number: 69Predicted Location: 27.6°N, 183.2°E
A Soyuz rocket body that was launched on the 7th June, 2011, from the Baikonur cosmodrome, for the Soyuz TMA-02M with Expedition 28 mission is predicted to re-enter the Earths atmosphere on the 11th June, 2011 @ 23:34 GMT ± 48 hours.
SOYUZ RB1 37634U 11023B 11160.62024647 .01750298 00000-0 49115-3 0 1432 37634 051.6502 199.2795 0028864 091.6554 268.8693 16.25659781 297
Period: 88.61 minutesInclination: 51.66°Apogee: 225 kmPerigee: 187 km Revolution Number: 69Predicted Location: 27.4°S, 137.5°E